| time (UTC) | temp F | wind direction | speed MPH | gust MPH | rain 1hr in | rain 24hr in | rain mn in | humidity % | barometer mb |
| 20260906161556 | 87 | 267 | 4.0 | 9.0 | 0.00 | 0.00 | 0.00 | 75 | 1017.1 |
| 20260906160056 | 87 | 266 | 3.0 | 9.0 | 0.00 | 0.00 | 0.00 | 76 | 1017.0 |
| 20260906154549 | 87 | 267 | 2.0 | 7.0 | 0.00 | 0.00 | 0.00 | 76 | 1017.0 |
| 20260906153052 | 85 | 266 | 4.0 | 7.0 | 0.00 | 0.00 | 0.00 | 78 | 1016.9 |
| 20260906151546 | 85 | 266 | 3.0 | 7.0 | 0.00 | 0.00 | 0.00 | 79 | 1016.9 |
| 20260906150049 | 84 | 266 | 3.0 | 7.0 | 0.00 | 0.00 | 0.00 | 80 | 1016.9 |
| 20260906144547 | 82 | 266 | 5.0 | 12.0 | 0.00 | 0.00 | 0.00 | 82 | 1016.7 |
| 20260906143051 | 82 | 266 | 4.0 | 11.0 | 0.00 | 0.00 | 0.00 | 83 | 1016.8 |
| 20260906141555 | 81 | 266 | 3.0 | 9.0 | 0.00 | 0.00 | 0.00 | 85 | 1016.8 |
| 20260906140054 | 80 | 266 | 3.0 | 10.0 | 0.00 | 0.00 | 0.00 | 86 | 1016.7 |
| 20260906134545 | 79 | 266 | 4.0 | 8.0 | 0.00 | 0.00 | 0.00 | 88 | 1016.8 |
| 20260906133046 | 78 | 266 | 2.0 | 7.0 | 0.00 | 0.00 | 0.00 | 90 | 1016.7 |
| 20260906131609 | 77 | 266 | 3.0 | 8.0 | 0.00 | 0.00 | 0.00 | 91 | 1016.6 |
| 20260906130047 | 77 | 266 | 3.0 | 8.0 | 0.00 | 0.00 | 0.00 | 92 | 1016.4 |
| 20260906124545 | 0 | 0.0 | 0.0 | 0.00 | 0.00 | 0.00 | 1016.2 | ||
| 20260906123054 | 0 | 0.0 | 0.0 | 0.00 | 0.00 | 0.00 | 1016.1 | ||
| 20260906121551 | 0 | 0.0 | 0.0 | 0.00 | 0.00 | 0.00 | 1015.9 | ||
| 20260906120056 | 0 | 0.0 | 0.0 | 0.00 | 0.00 | 0.00 | 1015.9 | ||
| 20260906114549 | 0 | 0.0 | 0.0 | 0.00 | 0.00 | 0.00 | 1015.7 | ||
| 20260906113043 | 0 | 2.0 | 5.0 | 0.00 | 0.00 | 0.00 | 1015.6 | ||
| 20260906111549 | 76 | 266 | 1.0 | 5.0 | 0.00 | 0.00 | 0.00 | 89 | 1015.6 |
| 20260906110045 | 76 | 266 | 0.0 | 4.0 | 0.00 | 0.00 | 0.00 | 89 | 1015.5 |
| 20260906104554 | 76 | 266 | 1.0 | 3.0 | 0.00 | 0.00 | 0.00 | 88 | 1015.5 |
| 20260906103048 | 76 | 266 | 0.0 | 3.0 | 0.00 | 0.00 | 0.00 | 88 | 1015.4 |
| 20260906101545 | 77 | 266 | 1.0 | 2.0 | 0.00 | 0.00 | 0.00 | 87 | 1015.4 |
| 20260906100041 | 77 | 0 | 0.0 | 2.0 | 0.00 | 0.00 | 0.00 | 87 | 1015.3 |
| 20260906094550 | 76 | 266 | 0.0 | 2.0 | 0.00 | 0.00 | 0.00 | 87 | 1015.0 |
| 20260906093056 | 77 | 0 | 0.0 | 1.0 | 0.00 | 0.00 | 0.00 | 86 | 1014.9 |
| 20260906091547 | 77 | 266 | 0.0 | 1.0 | 0.00 | 0.00 | 0.00 | 85 | 1014.7 |
| 20260906090056 | 77 | 0 | 0.0 | 1.0 | 0.00 | 0.00 | 0.00 | 84 | 1014.6 |
| 20260906084555 | 78 | 266 | 0.0 | 3.0 | 0.00 | 0.00 | 0.00 | 84 | 1014.6 |
| 20260906083047 | 77 | 0 | 0.0 | 2.0 | 0.00 | 0.00 | 0.00 | 84 | 1014.5 |
| 20260906081547 | 77 | 266 | 1.0 | 3.0 | 0.00 | 0.00 | 0.00 | 84 | 1014.6 |
| 20260906080053 | 78 | 0 | 0.0 | 1.0 | 0.00 | 0.00 | 0.00 | 83 | 1014.4 |
| 20260906074558 | 78 | 266 | 0.0 | 2.0 | 0.00 | 0.00 | 0.00 | 82 | 1014.4 |
| 20260906073047 | 78 | 266 | 1.0 | 2.0 | 0.00 | 0.00 | 0.00 | 82 | 1014.5 |
| 20260906071549 | 79 | 266 | 0.0 | 2.0 | 0.00 | 0.00 | 0.00 | 80 | 1014.6 |
| 20260906070050 | 79 | 266 | 0.0 | 2.0 | 0.00 | 0.00 | 0.00 | 80 | 1014.7 |
| 20260906064546 | 79 | 0 | 0.0 | 0.0 | 0.00 | 0.00 | 0.00 | 80 | 1014.8 |
| 20260906063047 | 78 | 0 | 0.0 | 1.0 | 0.00 | 0.00 | 0.00 | 82 | 1015.0 |
| 20260906061546 | 79 | 0 | 0.0 | 0.0 | 0.00 | 0.00 | 0.00 | 80 | 1014.9 |
| 20260906054549 | 80 | 0 | 0.0 | 0.0 | 0.00 | 0.00 | 0.00 | 78 | 1014.9 |
| 20260906053041 | 80 | 0 | 0.0 | 2.0 | 0.00 | 0.00 | 0.00 | 77 | 1014.9 |
| 20260906051554 | 81 | 0 | 0.0 | 2.0 | 0.00 | 0.00 | 0.00 | 75 | 1014.9 |
| 20260906050048 | 83 | 0 | 0.0 | 0.0 | 0.00 | 0.00 | 0.00 | 72 | 1014.8 |
| 20260906044545 | 83 | 0 | 0.0 | 1.0 | 0.00 | 0.00 | 0.00 | 72 | 1014.7 |
| 20260906043048 | 83 | 266 | 0.0 | 1.0 | 0.00 | 0.00 | 0.00 | 72 | 1014.9 |
| 20260906041548 | 83 | 0 | 0.0 | 0.0 | 0.00 | 0.00 | 0.00 | 72 | 1014.8 |
| 20260906040049 | 84 | 266 | 0.0 | 0.0 | 0.00 | 0.00 | 0.00 | 69 | 1014.7 |
| 20260906034552 | 85 | 0 | 0.0 | 0.0 | 0.00 | 0.00 | 0.00 | 68 | 1014.4 |
| 20260906033048 | 86 | 266 | 0.0 | 2.0 | 0.00 | 0.00 | 0.00 | 65 | 1014.2 |
| 20260906031543 | 87 | 0 | 0.0 | 2.0 | 0.00 | 0.00 | 0.00 | 64 | 1014.2 |
| 20260906030056 | 87 | 266 | 1.0 | 3.0 | 0.00 | 0.00 | 0.00 | 65 | 1014.2 |
| 20260906024549 | 87 | 0 | 0.0 | 3.0 | 0.00 | 0.00 | 0.00 | 66 | 1014.2 |
| 20260906023047 | 86 | 266 | 1.0 | 3.0 | 0.00 | 0.00 | 0.00 | 66 | 1014.1 |
| 20260906021558 | 85 | 266 | 0.0 | 2.0 | 0.00 | 0.00 | 0.00 | 69 | 1013.8 |
| 20260906020053 | 86 | 266 | 1.0 | 5.0 | 0.00 | 0.00 | 0.00 | 68 | 1013.6 |
| 20260906014549 | 88 | 266 | 0.0 | 1.0 | 0.00 | 0.00 | 0.00 | 65 | 1013.4 |
| 20260906013045 | 88 | 0 | 0.0 | 0.0 | 0.00 | 0.00 | 0.00 | 65 | 1013.1 |
| 20260906011555 | 89 | 0 | 0.0 | 0.0 | 0.00 | 0.00 | 0.00 | 64 | 1012.9 |
| 20260906010055 | 90 | 0 | 0.0 | 0.0 | 0.00 | 0.00 | 0.00 | 62 | 1012.8 |
| 20260906004547 | 91 | 0 | 0.0 | 0.0 | 0.00 | 0.00 | 0.00 | 59 | 1012.8 |
| 20260906003048 | 92 | 0 | 0.0 | 0.0 | 0.00 | 0.00 | 0.00 | 57 | 1012.8 |
| 20260906001601 | 94 | 0 | 0.0 | 1.0 | 0.00 | 0.00 | 0.00 | 56 | 1012.9 |
| 20260906000053 | 95 | 267 | 0.0 | 2.0 | 0.00 | 0.00 | 0.00 | 52 | 1012.9 |
| 20260905234548 | 96 | 0 | 0.0 | 3.0 | 0.00 | 0.00 | 0.00 | 51 | 1012.9 |
| 20260905233104 | 96 | 267 | 1.0 | 4.0 | 0.00 | 0.00 | 0.00 | 49 | 1012.9 |
| 20260905231553 | 96 | 267 | 2.0 | 5.0 | 0.00 | 0.00 | 0.00 | 49 | 1012.8 |
| 20260905230054 | 97 | 267 | 1.0 | 5.0 | 0.00 | 0.00 | 0.00 | 49 | 1012.7 |
| 20260905224606 | 97 | 0 | 2.0 | 4.0 | 0.00 | 0.00 | 0.00 | 49 | 1012.8 |
| 20260905223048 | 97 | 267 | 3.0 | 6.0 | 0.00 | 0.00 | 0.00 | 47 | 1012.8 |
| 20260905221543 | 97 | 267 | 2.0 | 6.0 | 0.00 | 0.00 | 0.00 | 48 | 1012.9 |
| 20260905220051 | 98 | 267 | 1.0 | 6.0 | 0.00 | 0.00 | 0.00 | 46 | 1013.1 |
| 20260905214548 | 98 | 267 | 3.0 | 6.0 | 0.00 | 0.00 | 0.00 | 45 | 1013.1 |
| 20260905213054 | 98 | 267 | 3.0 | 7.0 | 0.00 | 0.00 | 0.00 | 45 | 1013.2 |
| 20260905211547 | 98 | 267 | 3.0 | 7.0 | 0.00 | 0.00 | 0.00 | 45 | 1013.3 |
| 20260905210042 | 98 | 267 | 2.0 | 6.0 | 0.00 | 0.00 | 0.00 | 45 | 1013.4 |
| 20260905204553 | 98 | 267 | 2.0 | 7.0 | 0.00 | 0.00 | 0.00 | 46 | 1013.7 |
| 20260905203045 | 98 | 267 | 2.0 | 6.0 | 0.00 | 0.00 | 0.00 | 45 | 1013.9 |
| 20260905201549 | 98 | 267 | 4.0 | 11.0 | 0.00 | 0.00 | 0.00 | 44 | 1013.9 |
| 20260905200100 | 98 | 267 | 3.0 | 7.0 | 0.00 | 0.00 | 0.00 | 45 | 1014.0 |
| 20260905194549 | 98 | 267 | 3.0 | 7.0 | 0.00 | 0.00 | 0.00 | 45 | 1014.2 |
| 20260905193045 | 99 | 267 | 1.0 | 6.0 | 0.00 | 0.00 | 0.00 | 43 | 1014.4 |
| 20260905191553 | 98 | 268 | 1.0 | 5.0 | 0.00 | 0.00 | 0.00 | 46 | 1014.6 |
| 20260905190112 | 97 | 268 | 4.0 | 9.0 | 0.00 | 0.00 | 0.00 | 46 | 1014.8 |
| 20260905184606 | 97 | 268 | 2.0 | 8.0 | 0.00 | 0.00 | 0.00 | 47 | 1015.0 |
| 20260905183047 | 96 | 268 | 2.0 | 9.0 | 0.00 | 0.00 | 0.00 | 48 | 1015.1 |
| 20260905181551 | 96 | 268 | 3.0 | 9.0 | 0.00 | 0.00 | 0.00 | 50 | 1015.2 |
| 20260905180056 | 96 | 268 | 3.0 | 10.0 | 0.00 | 0.00 | 0.00 | 49 | 1015.4 |
| 20260905174555 | 96 | 268 | 3.0 | 8.0 | 0.00 | 0.00 | 0.00 | 49 | 1015.5 |
| 20260905173059 | 96 | 268 | 3.0 | 8.0 | 0.00 | 0.00 | 0.00 | 51 | 1015.7 |
| 20260905171553 | 95 | 268 | 2.0 | 8.0 | 0.00 | 0.00 | 0.00 | 53 | 1015.7 |
| 20260905170056 | 94 | 268 | 3.0 | 6.0 | 0.00 | 0.00 | 0.00 | 54 | 1015.8 |
| 20260905164549 | 94 | 268 | 2.0 | 6.0 | 0.00 | 0.00 | 0.00 | 55 | 1016.0 |
| 20260905163054 | 93 | 268 | 2.0 | 5.0 | 0.00 | 0.00 | 0.00 | 58 | 1016.0 |